DELTA 1 DEB, 7065

Orbit data source: Space-Track

DELTA 1 DEB, 7065 is space debris in SSO originally from a launch on Tue, 06 Nov 1973 UTC launched from the Air Force Western Test Range (AFWTR). Debris objects in space refer to the collection of defunct objects orbiting the Earth. Examples of debris include non-operational satellites, rocket bodies, and fragments generated from explosions, collisions, or faulty payload assembly.

Loading next visibility...
Identifier
7065, 1973-086BH
Orbit
SSO
Country
Flag of USUS
Related business
Manufacturer
Unknown
Mission
Spacecraft
Bus & Motor
Unknown
Mass
Unknown
Launch date (UTC)
1973-11-06 (52 years ago)
Launch vehicle
Unknown
Launch site
Air Force Western Test Range (AFWTR)
Object type
Payload
Rocket body
Debris
Shape & HBR
Unknown shape, 0.1 m
Radar Cross Section
Small (<0.1 m²)

Expand to show TLE details & history
Last TLE update: 9 hours ago

TLE from 9 hours ago
0 DELTA 1 DEB
1 07065U 73086BH  25292.90743625  .00000368  00000-0  33075-2 0  9995
2 07065 101.8395 269.1039 0042497 158.3334 228.4637 12.34162555334365
Epoch: 2025-10-19T21:46Z
TLE epoch observation values (Epoch: 2025-10-19T21:46:42.491Z)
Latitude
25.86135°
Longitude
-91.99435°
Altitude
1,556.638 km
Speed
7.081 km/s
True Right ascension
17h 33m 12s
True Declination
25° 44' 25"
Sunlit
Object was in daylight at epoch
Visualization orbit readout
Latitude
Unknown
Longitude
Unknown
Altitude
Unknown
Speed
Unknown
Apparent Right ascension
Unknown
Apparent Declination
Unknown
Sunlit
N/A
Visualization observer readout
Local Sidereal Time
01:45:52
Azimuth
Unknown
Elevation
Unknown
Doppler factor
Unknown
Orbital elements
Apogee altitude
1,562.622 km
Perigee altitude
1,495.416 km
Semi-major axis
7,907.156 km
Eccentricity
0.00425
Inclination
101.8395°
RAAN
269.1039°
Arg. of periapsis
158.3334°
True anomaly
228.10046°
Mean anomaly
228.4637°
Eccentric anomaly
228.28195°
Mean motion
3.08683 °/min
Orbital period
116.62 mins
BSTAR
0.0033075
Loading maneuver chart data...
Computing Atmospheric mass density...
Loading historical data...
Loading historical data...
Loading historical data...
Loading historical data...
Loading historical data...
Loading historical data...
Loading historical data...

Documentation

Showing up to 5 results
|